"Pseudo-MPEC" for JKt016

Created 2025 Jan 18 19:31:07 UT using Find_Orb

Click here for an explanation of pseudo-MPECs

 
 Astrometry: 
     JKt016 *3C2024 12 28.22046421 54 48.559-09 32 06.40   ~CSMH 23.0 gVNEOCPT09
     JKt016  3C2024 12 28.22513021 54 49.430-09 32 00.85   ~CSMH 22.4 gVNEOCPT09
     JKt016  3C2024 12 28.23186721 54 50.671-09 31 53.40   ~CSMH 22.9 gVNEOCPT09
     JKt016  3C2024 12 28.23658021 54 51.552-09 31 47.96   ~CSMH 22.9 gVNEOCPT09
     JKt016  3C2024 12 28.24778421 54 53.633-09 31 35.83   ~CSMHx23.3 gVNEOCPT09
     JKt016  3C2024 12 29.21542921 57 55.438-09 13 24.89   ~CTGl 22.18GVNEOCPT14
     JKt016  3C2024 12 29.21663621 57 55.670-09 13 23.39   ~CTGl 21.34GVNEOCPT14
     JKt016  3C2024 12 29.21784521 57 55.882-09 13 22.06   ~CTGl 21.91GVNEOCPT14
     JKt016  3C2024 12 30.20091822 01 02.720-08 54 33.11   ~CUCl!23.04GVNEOCPT14
     JKt016  3C2024 12 30.20212522 01 02.985-08 54 31.60   ~CUCl 22.66GVNEOCPT14
     JKt016  3C2024 12 30.20333522 01 03.216-08 54 30.24   ~CUCl 22.80GVNEOCPT14
     JKt016  3C2025 01 04.20271522 17 27.949-07 13 15.59   ~14E2 22.62GVNEOCPT14
     JKt016  3C2025 01 04.20393022 17 28.191-07 13 14.19   ~14E2 22.51GVNEOCPT14
     JKt016  3C2025 01 04.22414622 17 32.264-07 12 48.08   ~14E2 22.34GVNEOCPT14
     JKt016  3C2025 01 04.22535522 17 32.515-07 12 46.69   ~14E2 22.47GVNEOCPT14
     JKt016  3C2025 01 04.22656522 17 32.744-07 12 45.42   ~14E2 22.15GVNEOCPT14

Station data:
(T09) Mauna Kea-UH/Tholen NEO Follow-Up (Subaru)  (N19.825504 W155.476019)
   US/Hawaii.  Observer J. Kleyna. 8.2-m f/2.2 Subaru reflector.
(T14) Mauna Kea-UH/Tholen NEO Follow-Up (CFHT)  (N19.825252 W155.468876)
   US/Hawaii.  Observer R. Weryk. 3.6-m Canada-France-Hawaii Telescope.

Orbital elements:  JKt016
   Perihelion 2025 Jan 29.30378 +/- 0.505 TT =  7:17:26 (JD 2460704.80378)
Epoch 2024 Dec 30.0 TT = JDT 2460674.5   Earth MOID: 0.0322   Ju: 0.2597
M 357.18919229 +/- 0.45             Ma: 0.0880                   AutoNEOCP
n   0.09275436 +/- 0.0165           Peri.  108.53421 +/- 1.3
a   4.83333018 +/- 0.573            Node   317.28267 +/- 0.36
e   0.8239942 +/- 0.0174            Incl.    4.33782 +/- 0.058
P  10.62600                H 20.23  G  0.15   U 10.0
q 0.85069371 +/- 0.0168    Q 8.81596665 +/- 1.13          (J2000 ecliptic)
14 of 16 observations 2024 Dec. 28-2025 Jan. 4; mean residual 0".10
Residuals in arcseconds: 
241228 T09  .06-  .24-    241229 T14  .07+  .10+    250104 T14  .08-  .11-    
241228 T09  .05+  .08+    241229 T14  .14-  .05+    250104 T14  .04+  .21+    
241228 T09  .04-  .03-    241230 T14( .54-  .11-)   250104 T14  .15+  .06+    
241228 T09  .08+  .12+    241230 T14  .00   .00     250104 T14  .06-  .21-    
241228 T09( .14+  .32-)   241230 T14  .03+  .05-    
241229 T14  .02-  .02-    250104 T14  .05-  .04+    

Ephemerides (geocentric):
Date (UTC) HH   RA             Dec           delta  r     elong  mag " sig PA
---- --------  ------------   ------------  ------ ------ -----  --- --------
2025 01 18 20  23 11 32.580   -01 22 53.43  1.0721 .86891  49.8 22.2 38.5  82
2025 01 18 21  23 11 42.676   -01 21 46.76  1.0717 .86876  49.8 22.2 38.8  82
2025 01 18 22  23 11 52.777   -01 20 40.04  1.0713 .86862  49.8 22.2 39.1  82
2025 01 18 23  23 12 02.883   -01 19 33.29  1.0709 .86848  49.8 22.2 39.4  82
2025 01 19 00  23 12 12.995   -01 18 26.51  1.0705 .86834  49.8 22.2 39.7  82
2025 01 19 01  23 12 23.112   -01 17 19.68  1.0701 .86820  49.8 22.2 40.0  82
2025 01 19 02  23 12 33.234   -01 16 12.82  1.0697 .86806  49.8 22.2 40.3  82
2025 01 19 03  23 12 43.362   -01 15 05.92  1.0693 .86792  49.8 22.2 40.6  82
2025 01 19 04  23 12 53.495   -01 13 58.98  1.0689 .86778  49.8 22.2 40.9  82
2025 01 19 05  23 13 03.634   -01 12 52.01  1.0685 .86764  49.8 22.2 41.2  82
2025 01 19 06  23 13 13.778   -01 11 44.99  1.0681 .86751  49.8 22.2 41.5  82
2025 01 19 07  23 13 23.927   -01 10 37.94  1.0677 .86737  49.8 22.2 41.8  82
2025 01 19 08  23 13 34.081   -01 09 30.86  1.0673 .86723  49.8 22.2 42.1  82
2025 01 19 09  23 13 44.241   -01 08 23.74  1.0669 .86710  49.8 22.2 42.4  82
2025 01 19 10  23 13 54.407   -01 07 16.57  1.0665 .86696  49.8 22.2 42.8  82
2025 01 19 11  23 14 04.577   -01 06 09.38  1.0661 .86683  49.8 22.2 43.1  82
2025 01 19 12  23 14 14.754   -01 05 02.14  1.0657 .86669  49.8 22.2 43.4  82
2025 01 19 13  23 14 24.935   -01 03 54.87  1.0653 .86656  49.8 22.2 43.7  81
2025 01 19 14  23 14 35.122   -01 02 47.56  1.0649 .86642  49.8 22.2 44.0  81
2025 01 19 15  23 14 45.315   -01 01 40.21  1.0645 .86629  49.8 22.2 44.4  81
2025 01 19 16  23 14 55.512   -01 00 32.83  1.0641 .86616  49.9 22.2 44.7  81
2025 01 19 17  23 15 05.716   -00 59 25.41  1.0637 .86603  49.9 22.2 45.0  81
2025 01 19 18  23 15 15.924   -00 58 17.95  1.0632 .86590  49.9 22.2 45.4  81
2025 01 19 19  23 15 26.138   -00 57 10.46  1.0628 .86577  49.9 22.2 45.7  81
2025 01 19 20  23 15 36.358   -00 56 02.93  1.0624 .86563  49.9 22.2 46.0  81
2025 01 19 21  23 15 46.583   -00 54 55.36  1.0620 .86551  49.9 22.2 46.4  81
2025 01 19 22  23 15 56.813   -00 53 47.75  1.0616 .86538  49.9 22.2 46.7  81
2025 01 19 23  23 16 07.049   -00 52 40.11  1.0612 .86525  49.9 22.2 47.0  81
2025 01 20 00  23 16 17.291   -00 51 32.43  1.0608 .86512  49.9 22.2 47.4  81
2025 01 20 01  23 16 27.537   -00 50 24.72  1.0604 .86499  49.9 22.2 47.7  81
2025 01 20 02  23 16 37.790   -00 49 16.96  1.0600 .86487  49.9 22.2 48.1  81
2025 01 20 03  23 16 48.047   -00 48 09.17  1.0596 .86474  49.9 22.2 48.4  81
2025 01 20 04  23 16 58.311   -00 47 01.35  1.0592 .86461  49.9 22.2 48.8  81
2025 01 20 05  23 17 08.579   -00 45 53.48  1.0588 .86449  49.9 22.2 49.1  81
2025 01 20 06  23 17 18.854   -00 44 45.58  1.0584 .86436  49.9 22.2 49.5  81
2025 01 20 07  23 17 29.133   -00 43 37.65  1.0580 .86424  49.9 22.2 49.8  81
2025 01 20 08  23 17 39.419   -00 42 29.67  1.0576 .86412  49.9 22.2 50.2  81
2025 01 20 09  23 17 49.709   -00 41 21.66  1.0572 .86399  49.9 22.2 50.5  81
2025 01 20 10  23 18 00.005   -00 40 13.62  1.0568 .86387  49.9 22.2 50.9  81
2025 01 20 11  23 18 10.307   -00 39 05.53  1.0564 .86375  49.9 22.2 51.3  81
2025 01 20 12  23 18 20.614   -00 37 57.41  1.0560 .86363  49.9 22.2 51.6  81
2025 01 20 13  23 18 30.927   -00 36 49.25  1.0556 .86351  49.9 22.2 52.0  81
2025 01 20 14  23 18 41.245   -00 35 41.06  1.0552 .86339  49.9 22.2 52.4  81
2025 01 20 15  23 18 51.569   -00 34 32.83  1.0548 .86327  50.0 22.2 52.7  81
2025 01 20 16  23 19 01.899   -00 33 24.56  1.0544 .86315  50.0 22.2 53.1  81
2025 01 20 17  23 19 12.234   -00 32 16.26  1.0540 .86303  50.0 22.2 53.5  81
2025 01 20 18  23 19 22.574   -00 31 07.92  1.0536 .86291  50.0 22.2 53.9  81
2025 01 20 19  23 19 32.920   -00 29 59.55  1.0532 .86279  50.0 22.2 54.3  81